Погода в Самагалтае

Россия / Республика Тыва     50°36′01″N   95°00′18″E
темп.,
°C
ветер,
м/с
пор.,
м/с
влажн.,
%
обл.,
%
осадки,
мм/ч
давл.,
гПа
погр.,
м
15 мая, сб
сб1501:00+7всв11395 0.0 101610
04:00+6всв334518 0.0 101832
07:00+7св56629 0.0 1021411
10:00+11ссв4438100 0.0 10211477
13:00+13с3428100 0.0 10202392
16:00+15сз232883 0.0 10192333
19:00+14ссв33335 0.0 10191892
22:00+9св45499 0.0 102168
16 мая, вс
вс1601:00+8всв335273 0.0 102132
04:00+7всв22545 0.0 102112
07:00+10вюв11445 0.0 1020135
10:00+14юз33327 0.0 10191091
13:00+17зюз45258 0.0 10162055
16:00+19з562263 0.0 10132163
19:00+18з45266 0.0 1012749
22:00+12ссз22363 0.0 101211
17 мая, пн
пн1701:00+11юв223995 0.0 101210
04:00+9вюв1143100 0.0 101110
07:00+13юв123565 0.0 1011104
10:00+17зюз36348 0.0 10101154
13:00+20зсз7926100 0.0 10072935
16:00+15ссв675693 0.6 1009948
19:00+13ссв57544 0.7 10101074
22:00+9св3474100 0.0 101259
18 мая, вт
вт1801:00+8св227787 0.0 101323
04:00+7всв2271100 0.0 101216
07:00+10св2261100 0.1 1012229
10:00+13в025499 0.1 10111162
13:00+15ссз2347100 0.2 10091472
16:00+17зсз3637100 0.0 10062067
19:00+17зсз5739100 0.0 1004701
22:00+13св225562 0.0 100530
19 мая, ср
ср1901:00+11юз226163 0.1 100514
04:00+9вюв117571 0.1 100410
07:00+12ююв006038 0.1 1004231
10:00+16зюз4641100 0.0 10021577
13:00+18зсз6113291 0.1 9992899
16:00+16ссз774999 0.1 998916
19:00+14св3549100 0.2 999392
22:00+10св4763100 0.1 1000426